Orr, MN

10:40 AM CDT on September 25, 2017 (GMT -0500)
Orr Regional

Weather History for KORB - February, 2012

Change the Weather History Date:

Tuesday, February 21, 2012

  Actual Average Record
Temperature  
Mean Temperature 28 °F -  
Max Temperature 32 °F 24 °F 50 °F (2017)
Min Temperature 24 °F 5 °F -27 °F (2001)
Degree Days  
Heating Degree Days 37    
Moisture  
Dew Point 26 °F    
Average Humidity 89    
Maximum Humidity 93    
Minimum Humidity 80    
Precipitation  
Precipitation 0.04 in - - ()
Sea Level Pressure  
Sea Level Pressure 29.35 in    
Wind  
Wind Speed 7 mph (SSW)    
Max Wind Speed 13 mph    
Max Gust Speed 20 mph    
Visibility 4 miles    
Events Snow    
Averages and records for this station are not official NWS values.
T = Trace of Precipitation, MM = Missing Value Source: NWS Daily Summary

Daily Weather History Graph

Daily Weather History Graph

Search for Another Location

Airport or City:

Trip Planner

Search our weather history database for the weather conditions in past years. The results will help you decide how hot, cold, wet, or windy it might be!

Date:

Astronomy

Feb. 21, 2012 Rise Set
Actual Time 7:08 AM CST 5:42 PM CST
Civil Twilight 6:36 AM CST 6:14 PM CST
Nautical Twilight 6:00 AM CST 6:50 PM CST
Astronomical Twilight 5:24 AM CST 7:26 PM CST
Moon 6:34 AM CST (2/21) 5:54 PM CST (2/21)
Length of Visible Light 11h 37m
Length of Day
10h 34m
Waning Crescent, 0% of the Moon is Illuminated
Feb 21
Waning Crescent
Feb 21
New
Feb 29
First Quarter
Mar 8
Full
Mar 14
Last Quarter

Hourly Weather History & Observations

Time (CST) Temp. Windchill Dew Point Humidity Pressure Visibility Wind Dir Wind Speed Gust Speed Precip Events Conditions
12:14 AM 28.4 °F 20.4 °F 26.6 °F 93% 29.59 in 2.5 mi SE 8.1 mph - N/A   Overcast
12:34 AM 28.4 °F 20.4 °F 26.6 °F 93% 29.58 in 3.0 mi SE 8.1 mph - 0.01 in   Overcast
12:54 AM 28.4 °F 21.2 °F 26.6 °F 93% 29.57 in 2.0 mi SE 6.9 mph - 0.01 in   Overcast
1:14 AM 28.4 °F 21.2 °F 26.6 °F 93% 29.56 in 3.0 mi SE 6.9 mph - 0.01 in   Overcast
1:34 AM 28.4 °F 21.2 °F 26.6 °F 93% 29.55 in 3.0 mi ESE 6.9 mph - 0.02 in   Overcast
1:54 AM 28.4 °F 21.2 °F 26.6 °F 93% 29.53 in 2.5 mi SE 6.9 mph - 0.02 in   Overcast
2:14 AM 28.4 °F 21.2 °F 26.6 °F 93% 29.51 in 2.5 mi SE 6.9 mph - N/A   Overcast
2:34 AM 28.4 °F 21.2 °F 26.6 °F 93% 29.50 in 3.0 mi SE 6.9 mph - N/A   Overcast
2:54 AM 28.4 °F 20.4 °F 26.6 °F 93% 29.48 in 3.0 mi SE 8.1 mph - N/A   Overcast
3:14 AM 28.4 °F 21.2 °F 26.6 °F 93% 29.47 in 2.0 mi SE 6.9 mph - N/A   Overcast
3:34 AM 28.4 °F 22.2 °F 26.6 °F 93% 29.45 in 3.0 mi SE 5.8 mph - N/A   Overcast
3:54 AM 28.4 °F 21.2 °F 26.6 °F 93% 29.44 in 2.0 mi SE 6.9 mph - N/A Snow Light Snow
4:15 AM 28.4 °F 22.2 °F 26.6 °F 93% 29.43 in 2.0 mi SE 5.8 mph - N/A Snow Light Snow
4:35 AM 28.4 °F 22.2 °F 26.6 °F 93% 29.42 in 5.0 mi SE 5.8 mph - N/A Snow Light Snow
4:55 AM 28.4 °F 21.2 °F 26.6 °F 93% 29.41 in 3.0 mi SE 6.9 mph - N/A   Overcast
5:14 AM 28.4 °F 23.3 °F 26.6 °F 93% 29.40 in 4.0 mi SE 4.6 mph - N/A   Overcast
5:34 AM 28.4 °F 22.2 °F 26.6 °F 93% 29.39 in 2.5 mi SE 5.8 mph - N/A Snow Light Snow
5:54 AM 28.4 °F 23.3 °F 26.6 °F 93% 29.38 in 2.0 mi SE 4.6 mph - N/A Snow Light Snow
6:34 AM 28.4 °F 21.2 °F 26.6 °F 93% 29.36 in 2.5 mi SE 6.9 mph - N/A Snow Light Snow
7:14 AM 28.4 °F 22.2 °F 26.6 °F 93% 29.36 in 3.0 mi SE 5.8 mph - N/A Snow Light Snow
7:34 AM 28.4 °F 23.3 °F 26.6 °F 93% 29.35 in 1.8 mi SE 4.6 mph - N/A Snow Light Snow
7:54 AM 28.4 °F 21.2 °F 26.6 °F 93% 29.34 in 1.5 mi SE 6.9 mph - N/A Snow Light Snow
8:34 AM 30.2 °F 24.3 °F 26.6 °F 86% 29.33 in 1.8 mi SE 5.8 mph - N/A Snow Light Snow
8:54 AM 30.2 °F 24.3 °F 26.6 °F 86% 29.32 in 1.2 mi SE 5.8 mph - 0.01 in Snow Snow
9:14 AM 30.2 °F 25.4 °F 26.6 °F 86% 29.32 in 2.0 mi SSE 4.6 mph - N/A   Overcast
9:34 AM 30.2 °F 24.3 °F 26.6 °F 86% 29.31 in 2.5 mi SSE 5.8 mph - N/A Snow Light Snow
9:54 AM 30.2 °F 25.4 °F 26.6 °F 86% 29.30 in 2.5 mi SSE 4.6 mph - N/A Snow Light Snow
10:14 AM 30.2 °F 24.3 °F 28.4 °F 93% 29.30 in 2.0 mi South 5.8 mph - N/A Snow Light Snow
10:34 AM 32.0 °F 26.4 °F 28.4 °F 87% 29.29 in 3.0 mi South 5.8 mph - N/A Snow Light Snow
10:54 AM 32.0 °F 27.5 °F 28.4 °F 87% 29.29 in 4.0 mi South 4.6 mph - N/A Snow Light Snow
11:14 AM 32.0 °F 27.5 °F 28.4 °F 87% 29.29 in 5.0 mi SSW 4.6 mph - N/A Snow Light Snow
11:34 AM 32.0 °F 28.7 °F 28.4 °F 87% 29.28 in 7.0 mi SW 3.5 mph - N/A Snow Light Snow
11:54 AM 32.0 °F 27.5 °F 28.4 °F 87% 29.27 in 10.0 mi SW 4.6 mph - N/A Snow Light Snow
12:14 PM 30.2 °F 24.3 °F 28.4 °F 93% 29.27 in 5.0 mi SW 5.8 mph - N/A Snow Light Snow
12:34 PM 32.0 °F 27.5 °F 28.4 °F 87% 29.26 in 7.0 mi WSW 4.6 mph - N/A Snow Light Snow
12:55 PM 30.2 °F 24.3 °F 28.4 °F 93% 29.26 in 5.0 mi WSW 5.8 mph - N/A Snow Light Snow
1:15 PM 30.2 °F 23.4 °F 28.4 °F 93% 29.25 in 5.0 mi WSW 6.9 mph - N/A Snow Light Snow
1:35 PM 30.2 °F 22.6 °F 28.4 °F 93% 29.25 in 4.0 mi West 8.1 mph - N/A Snow Light Snow
2:34 PM 30.2 °F 21.9 °F 28.4 °F 93% 29.24 in 2.5 mi West 9.2 mph 16.1 mph N/A Snow Light Snow
2:54 PM 30.2 °F 22.6 °F 28.4 °F 93% 29.25 in 3.0 mi West 8.1 mph - N/A Snow Light Snow
3:14 PM 30.2 °F 23.4 °F 28.4 °F 93% 29.25 in 1.8 mi West 6.9 mph - N/A Snow Light Snow
3:34 PM 30.2 °F 21.3 °F 26.6 °F 86% 29.25 in 1.2 mi West 10.4 mph - N/A Snow Light Snow
3:54 PM 30.2 °F 20.2 °F 26.6 °F 86% 29.26 in 1.0 mi West 12.7 mph 17.3 mph N/A Snow Light Snow
4:14 PM 28.4 °F 19.1 °F 26.6 °F 93% 29.26 in 2.0 mi West 10.4 mph 17.3 mph N/A Snow Light Snow
4:34 PM 28.4 °F 19.1 °F 24.8 °F 86% 29.27 in 2.5 mi West 10.4 mph 19.6 mph N/A Snow Light Snow
4:54 PM 28.4 °F 19.1 °F 24.8 °F 86% 29.28 in 2.5 mi West 10.4 mph 17.3 mph N/A Snow Light Snow
5:14 PM 26.6 °F 16.8 °F 23.0 °F 86% 29.28 in 7.0 mi West 10.4 mph 19.6 mph N/A   Overcast
5:34 PM 26.6 °F 16.2 °F 23.0 °F 86% 29.29 in 3.0 mi West 11.5 mph 18.4 mph N/A Snow Light Snow
6:14 PM 26.6 °F 16.8 °F 21.2 °F 80% 29.30 in 7.0 mi West 10.4 mph - N/A Snow Light Snow
6:34 PM 24.8 °F 14.0 °F 21.2 °F 86% 29.30 in 7.0 mi West 11.5 mph 18.4 mph N/A Snow Light Snow
6:54 PM 24.8 °F 16.1 °F 21.2 °F 86% 29.31 in 7.0 mi West 8.1 mph - N/A Snow Light Snow
7:14 PM 24.8 °F 16.1 °F 21.2 °F 86% 29.31 in 5.0 mi West 8.1 mph - N/A Snow Light Snow
7:34 PM 24.8 °F 14.6 °F 21.2 °F 86% 29.31 in 7.0 mi West 10.4 mph 16.1 mph N/A Snow Light Snow
7:54 PM 24.8 °F 15.3 °F 21.2 °F 86% 29.31 in 7.0 mi West 9.2 mph - N/A Snow Light Snow
8:14 PM 24.8 °F 16.1 °F 19.4 °F 80% 29.31 in 10.0 mi West 8.1 mph - N/A   Overcast
8:34 PM 24.8 °F 14.6 °F 19.4 °F 80% 29.31 in 7.0 mi West 10.4 mph - N/A Snow Light Snow
8:54 PM 24.8 °F 15.3 °F 19.4 °F 80% 29.32 in 4.0 mi West 9.2 mph - N/A Snow Light Snow
9:14 PM 23.0 °F 13.9 °F 19.4 °F 86% 29.32 in 3.0 mi West 8.1 mph 16.1 mph N/A Snow Light Snow
9:34 PM 23.0 °F 12.4 °F 19.4 °F 86% 29.32 in 3.0 mi West 10.4 mph - N/A Snow Light Snow
9:54 PM 23.0 °F 13.1 °F 19.4 °F 86% 29.31 in 3.0 mi West 9.2 mph - N/A Snow Light Snow
10:14 PM 24.8 °F 14.6 °F 19.4 °F 80% 29.32 in 5.0 mi West 10.4 mph 16.1 mph N/A Snow Light Snow
10:34 PM 23.0 °F 11.1 °F 19.4 °F 86% 29.32 in 7.0 mi West 12.7 mph 16.1 mph N/A   Overcast
10:54 PM 23.0 °F 14.7 °F 19.4 °F 86% 29.32 in 10.0 mi West 6.9 mph - N/A   Overcast
11:34 PM 23.0 °F 15.8 °F 19.4 °F 86% 29.32 in 10.0 mi West 5.8 mph - N/A   Overcast
11:54 PM 23.0 °F 13.9 °F 19.4 °F 86% 29.32 in 10.0 mi West 8.1 mph - N/A   Overcast